Regional Weather Roundup
Issued by NWS Kansas City/Pleasant Hill, MO

Home | Current Version | Previous Version | Graphics & Text | Print | Product List | Glossary Off
Versions: 1 2 3 4 5 6 7 8 9 10 11 12 13 14 15 16 17 18 19 20 21 22 23 24 25 26 27 28 29 30 31 32 33 34 35 36 37 38 39 40 41 42 43 44 45 46 47 48 49 50

434
ASUS43 KEAX 240110
RWREAX

WEATHER ROUNDUP FOR EASTERN KANSAS AND NORTHWEST MISSOURI
NATIONAL WEATHER SERVICE KANSAS CITY/PLEASANT HILL MO
800 PM CDT SAT SEP 23 2017

KSZ040-057-103>105-MOZ028-029-037-043-240200-
...KANSAS CITY METROPOLITAN AREA...

CITY           SKY/WX    TMP DP  RH WIND       PRES   REMARKS
K.C. INTL      PTCLDY    76  68  76 SE6       29.96R
K.C. DOWNTOWN  CLEAR     85  68  56 SE8       29.94S
LEES SUMMIT    CLEAR     81  69  67 S6        29.97S
OLATHE - IXD   CLEAR     80  67  64 SE6       29.96S
OLATHE - OJC   CLEAR     79  70  74 E5        29.96S
LAWRENCE       CLEAR     77  67  71 E6        29.94S

$$

MOZ001>008-011>017-020>025-030>033-038>040-044>046-053-054-240200-
...NORTHERN AND CENTRAL MISSOURI...

CITY           SKY/WX    TMP DP  RH WIND       PRES   REMARKS
ST. JOSEPH     CLEAR     78  68  71 S5        29.94S
MOSBY          CLEAR     81  66  61 CALM      29.96R
WARRENSBURG    CLEAR     79  66  65 SE3       29.95S
WHITEMAN AFB   CLEAR     78  71  80 S5        29.96R
CLINTON        LGT RAIN  77  70  78 MISG      29.97R
SEDALIA        CLEAR     80  69  69 S5        29.98S
WARSAW         NOT AVBL
CHILLICOTHE      N/A     77  68  73 CALM      29.97R
KIRKSVILLE     CLEAR     78  64  61 SE6       29.99R

$$

MOZ041-047>049-056>058-063>065-088>090-097-240200-
...EASTERN AND SOUTHERN MISSOURI...

CITY           SKY/WX    TMP DP  RH WIND       PRES   REMARKS
ST. LOUIS INTL CLEAR     83  63  50 E7        30.00R
SPIRIT OF STL  CLEAR     75  68  78 CALM      29.97S
COLUMBIA       CLEAR     81  66  60 E6        29.98S
JEFFERSON CITY CLEAR     81  67  62 SE6       29.95S
ROLLA          PTCLDY    79  62  56 SE6       30.00S
OSAGE BEACH    MOCLDY    77  70  79 CALM      29.98S
SPRINGFIELD    CLEAR     78  64  61 E6        29.97S
BRANSON        PTCLDY    79  63  57 SE6       29.99S
JOPLIN         CLEAR     77  65  66 E3        29.95S
WEST PLAINS    CLEAR     77  63  61 CALM      30.01R

$$

IAZ060-094-KSZ022-034>040-054-083-096-NEZ052-066-093-240200-
...KANSAS...SOUTHEAST NEBRASKA AND IOWA...

CITY           SKY/WX    TMP DP  RH WIND       PRES   REMARKS
TOPEKA         CLEAR     78  67  68 E6        29.92F
MANHATTAN      CLEAR     83  62  49 SE8       29.89S
EMPORIA        CLEAR     78  61  55 SE9       29.93S
CHANUTE        CLEAR     79  66  64 E5        29.94S
WICHITA        PTCLDY    82  63  52 SE14      29.90R
OMAHA          MOCLDY    85  62  46 SE13      29.89S
LINCOLN        CLEAR     83  61  47 S15       29.88R
FALLS CITY     CLEAR     78  66  66 SE7       29.92S
LAMONI         CLEAR     82  65  56 SE6       29.97R
DES MOINES     MOCLDY    84  64  50 SE9       29.95R

$$





USA.gov is the U.S. government's official web portal to all federal, state and local government web resources and services.